Погода в Минусинске

Погода в Минусинске : погода сейчас, прогноз погоды и архив. Всё, что Вы хотите узнать о погоде в Минусинске!

Поиск расширенной информации на нашем сайте:

Другие новости

Новости СМИ2

Главная страница сайта

Новости сайта

03.07.2017

Напоминаем, что на нашем специализированном сайте Метеоцентр.Азия вы можете получить высокодетализированные автоматические прогнозы погоды по пунктам России, СНГ и мира в авиационном формате (включающие направление и скорость ветра, видимость, явления погоды, количество и форму облачности, нижнюю и верхнюю границу облачности).

Рекомендуем: http://minprom.ua/ условия ес для украины: вступление украины в сроки и условия.

Погода в Минусинске - сегодня

Время (UTC), дата Ветер
(°,м/с) 
Видим.   Явления Облачность Т
(°С)
Тd
(°С)
f(%) Тe
(°С)
Pmin
(гПа)
dP
(гПа)
Po
(мм)
O2
(г/м3)
Тmin Tmax R s Состояние
почвы
15 19.11.17 190 (Ю) н/о    10/3 1000 м средняя, верхняя 
[Sc|Ac trans|Ci fib]
-1.1 -6 69 -4  1025.2  -0.2  745  302           
18 19.11.17 240 (ЮЗ) 6{11}  н/о    6/0 средняя, верхняя 
[Ac trans|Ci fib]
-0.8 -4 79 -4  1025.8  0.6  745  302           
21 19.11.17 270 (З) н/о    10/3 1000 м средняя, верхняя 
[Sc|Ac trans|Ci fib]
-1.5 -4.5 80 -2  1027.7  1.8  747  303           
00 20.11.17 250 (З) 7{12}  н/о    10/0 средняя, верхняя 
[Ac trans|Ci fib]
-2.1 -9.2 58 -6  1029.8  1.9  748  305  -5      равномерный
мокрый или
старый снег
100% 
03 20.11.17 230 (ЮЗ) 7-10{11}  20000 м    10/8 1000 м средняя 
[Sc|Ac As]
-3 -8.4 66 -7  1030.9  0.9  749  306           
06 20.11.17 240 (ЮЗ) 6-10{10}  20000 м    10/3 1000 м средняя 
[Sc|Ac As]
-2.5 -8.1 65 -6  1031.4  0.7  749  306           
09 20.11.17 230 (ЮЗ) 5{10}  20000 м    10/4 1000 м средняя 
[Sc|Ac As]
-2 -7 69 -5  1031.1  -0.3  749  305           
12 20.11.17 240 (ЮЗ) н/о    10/8 1000 м средняя 
[Sc|Ac As]
-2.4 -6.8 72 -6  1032  0.8  750  305    -1.8       
15 20.11.17 240 (ЮЗ) н/о    10/8 1000 м средняя, верхняя 
[Sc|Ac As|Ci fib]
-3 -6.8 75 -7  1033.2  750  306           
18 20.11.17 220 (ЮЗ) н/о    10/8 1000 м средняя 
[Sc|Ac As]
-2.7 -6.8 73 -5  1033.8  0.8  751  306           
21 20.11.17 230 (ЮЗ) н/о    10/10 1000 м 
[Sc]
-2.8 -6.5 76 -6  1034  0.2  751  306           
00 21.11.17 260 (З) н/о  {ливн. осадки}  10/10 600 м кучево-дожд. 
[Cb cap]
-3.1 -6.9 75 -5  1034.5  0.3  751  307  -3.5    0.0  равномерный
мокрый или
старый снег
100% 
03 21.11.17 240 (ЮЗ) 20000 м    10/3 1000 м средняя 
[Sc|Ac As]
-3.5 -7.1 76 -5  1035.5  0.9  752  308  -4.3         
06 21.11.17 230 (ЮЗ) 7-10{11}  20000 м    10/3 1000 м средняя 
[Sc|Ac As]
-1.2 -5.5 73 -5  1034.7  -0.4  752  305           
09 21.11.17 240 (ЮЗ) 5{12}  20000 м    10/10 2000 м 
[Ac As]
-1.2 -7.4 63 -4  1034.3  -0.4  751  305           
12 21.11.17 230 (ЮЗ) 5{10}  н/о    10/3 1000 м верхняя 
[Sc|Ci fib]
-2.8 -6.9 73 -6  1035.1  0.6  752  307    -1       
15 21.11.17 230 (ЮЗ) 3{10}  н/о    10/5 1000 м средняя 
[Sc|Ac As]
-3 -8 68 -5  1035.5  0.2  752  307           
18 21.11.17 230 (ЮЗ) 5{10}  н/о    10/5 1000 м средняя 
[Sc|Ac As]
-2.6 -7 72 -6  1034.8  -0.4  752  307           
21 21.11.17 220 (ЮЗ) 6{10}  н/о    10/6 600 м кучево-дожд., средняя 
[Cb cap|Ac As]
-2.4 -7.6 67 -6  1032.8  -2  750  306           
00 22.11.17 220 (ЮЗ) 5-10{12}  н/о  слаб. ливневой снег  10/10 600 м кучево-дожд. 
[Cb cap]
-3 -4.3 91 -7  1030.9  -2  749  306  -3    0.7  равномерный
сухой снег
100% 
03 22.11.17 230 (ЮЗ) 7-11{14}  4000 м  слаб. ливневой снег  10/10 600 м кучево-дожд. 
[Cb cap]
-2.1 -4.9 81 -6  1028.1  -2.5  747  304  -3.2         
06 22.11.17 170 (Ю) 2{11}  20000 м  в посл. час ливневой снег  10/8 600 м кучево-дожд., средняя 
[Cb cap|As op]
-1.7 -4.4 82 -3  1029.3  1.2  748  304           
09 22.11.17 240 (ЮЗ) 20000 м    10/8 600 м кучево-дожд., средняя 
[Cb cap|As op]
+0 -6.4 62 -2  1032  2.7  750  303           
12 22.11.17 260 (З) н/о    10/6 600 м средняя 
[Sc|As op]
-1.1 -6.9 65 -4  1034.5  2.4  752  305    +0.2     
15 22.11.17 170 (Ю) н/о    10/5 1000 м средняя 
[Sc|As op]
-4 -7.7 75 -4  1034.7  -0.2  751  308           
Время (UTC), дата Ветер
(°,м/с) 
Видим.   Явления Облачность Т
(°С)
Тd
(°С)
f(%) Тe
(°С)
Pmin
(гПа)
dP
(гПа)
Po
(мм)
O2
(г/м3)
Тmin Tmax R s Состояние
почвы

Для получения пояснительной информации подведите курсор к названию столбца.

ПОГОДА в Минусинске - архив

Всё, что Вы хотите узнать о погоде в Минусинске - удобно и подробно!

Выберите нужную дату (начиная с 1 января 2015* года) и нажмите кнопку "Найти".
Будут отображены архивные сводки погоды по пункту Минусинск, начиная с указанной даты.


Отображать данные в формате CSV (для использования в таблицах Excel)


Внимание! Наш архив погоды предназначен исключительно для личного некоммерческого использования в познавательных целях. Если Вам необходимы официальные справки о состоянии погоды (для производственных, юридических, коммерческих и т.п. целей), обращайтесь в органы Росгидромета.

*Примечание: данная дата относится к архиву по метеостанциям СССР (Россия, СНГ, Балтия).
Архив по метеостанциям Зарубежной Европы и Азии (кроме Китая) хранится 10 дней, по другим регионам земного шара (Китай, Африка, Америка, Австралия, Океания) - 1 день.

Минусинск - район местоположения метеостанции


Название, широта, долгота, высота метеостанции:
Минусинск 53.7°ш. 91.7°д. 254 м над ур. моря [Российская Федерация]

Дополнительная информация

В oтличие oт бoльшинства пoгoдных сайтoв мы публикуем пoдрoбную метеoинфoрмацию в детальнoм прoфессиoнальнoм фoрмате.

Характеристики температуры и влажнoсти вoздуха измеряются на высoте 2 м в тени вдали oт зданий и деревьев.
Скoрoсть ветра измеряется на высoте 10 м (на урoвне рoста челoвека скoрoсть ветра ниже в 1.5-2 раза). Если метеoстанция нахoдится в гoрoде или в лесу, тo скoрoсть ветра занижена на 2-4 м/с пo сравнению с oткрытым местoм. Скoрoсть ветра над акватoриями крупных рек и oзёр, а также на вершинах хoлмoв на 2-5 м/с выше, чем в oбычных услoвиях.
Атмoсфернoе давление в разных тoчках местнoсти мoжет значительнo oтличаться oт давления на метеoстанции, в зависимoсти oт услoвий рельефа (при пoдъёме на 10 м давление пoнижается примернo на 1 мм рт.ст.).